Wind_Speed
51 50 49 47 46 45 45 43 42 41 41 40 38 36 34 32 29 27 25 23 22 21 20 20 20 21 21 22 23 23 25 26 27 29 30 32 33 35
56 55 53 52 51 50 49 47 46 44 44 43 42 40 37 34 33 30 28 26 24 23 22 21 21 21 22 22 23 23 23 25 26 27 29 30 32 33
61 60 59 58 56 54 52 51 50 48 46 45 44 43 40 38 36 33 31 28 26 25 24 22 22 22 22 23 24 24 24 24 26 27 28 29 30 32
67 65 64 63 61 60 58 56 54 52 51 49 47 46 44 41 39 36 33 31 29 27 25 24 23 23 22 23 23 23 24 24 24 26 27 28 29 31
69 69 69 68 67 65 63 60 58 56 55 53 51 49 47 44 42 39 36 33 31 29 27 25 24 23 23 23 23 23 23 24 24 25 26 28 29 30
67 68 69 70 70 69 67 65 63 60 58 56 54 51 49 47 44 41 39 36 33 31 29 27 25 24 24 23 23 23 23 24 23 24 25 26 28 28
62 65 67 69 71 71 70 68 67 64 62 60 57 54 51 49 46 44 41 38 36 33 30 28 27 25 24 24 23 23 23 23 23 23 24 25 26 27
58 59 62 65 69 70 71 71 70 67 65 64 61 56 53 50 48 46 43 41 38 35 32 30 28 26 24 23 22 22 22 23 22 22 23 23 24 25
55 55 57 59 62 66 69 70 70 69 68 66 63 60 55 52 50 47 45 43 40 37 34 31 29 27 25 23 22 21 21 22 22 22 22 22 22 23
50 51 52 54 55 59 63 67 68 68 68 66 64 61 58 55 52 49 46 44 42 39 35 32 30 28 26 25 23 22 21 21 21 21 21 21 22 23
47 47 47 49 52 53 57 61 64 66 67 67 65 63 60 56 53 50 47 45 42 39 36 33 31 29 27 25 24 23 23 22 22 21 21 21 22 22
41 42 42 43 46 48 50 54 57 60 63 66 66 64 60 57 54 51 47 45 43 39 36 33 31 29 27 26 25 23 22 22 22 22 21 21 21 21
36 36 36 38 41 43 46 49 52 55 58 60 63 62 60 58 55 51 48 45 43 39 36 34 32 30 28 26 25 23 22 21 22 22 22 21 22 22
32 33 33 33 35 38 41 43 47 51 54 56 58 59 58 56 54 51 48 45 43 40 37 35 33 30 28 26 24 23 22 22 22 22 22 22 22 22
30 30 30 30 31 32 35 39 42 47 51 53 54 56 57 54 53 51 48 46 43 40 38 35 33 31 28 26 25 23 23 22 22 23 23 22 22 22
28 28 28 28 29 30 32 35 39 42 46 50 52 54 55 54 52 50 48 45 43 40 37 36 33 31 28 26 25 24 23 23 23 22 23 23 23 23
27 27 27 27 28 28 30 33 35 38 42 48 51 51 52 53 52 50 48 45 42 40 37 35 33 31 29 27 26 24 24 24 24 23 22 22 22 22
24 25 26 27 28 28 29 31 33 35 40 46 50 51 50 51 50 49 47 44 42 40 37 35 33 31 29 28 26 25 24 24 23 23 23 22 22 22
22 23 24 25 27 27 28 30 31 34 39 44 49 50 49 48 48 48 46 44 42 40 37 35 33 31 30 28 26 26 25 24 23 23 22 22 22 22
18 20 21 22 24 25 27 29 31 34 40 44 47 49 48 47 47 47 46 43 41 39 37 34 33 31 30 28 27 26 25 24 23 23 22 22 22 22
15 18 19 20 22 24 26 29 31 35 40 43 45 46 46 46 46 45 44 43 40 38 36 34 32 30 29 28 27 26 24 24 23 23 23 23 23 23
13 15 17 18 20 23 27 29 32 36 40 42 43 44 44 44 44 44 43 41 39 37 35 33 32 30 28 27 26 25 24 24 24 24 24 24 24 25
11 13 15 18 20 24 27 30 34 38 40 41 43 42 43 42 42 42 41 40 38 36 33 32 30 29 28 27 25 25 24 24 24 24 25 25 25 26
Wind_Direction
242 242 241 239 237 236 236 236 235 235 235 235 235 234 234 236 238 241 244 248 251 256 261 265 267 266 262 257 255 254 251 248 247 245 243 243 243 242
243 242 241 240 239 237 236 236 236 236 236 236 236 236 235 235 238 240 243 246 250 254 258 263 267 266 262 257 256 254 253 251 248 247 246 245 244 243
243 242 241 240 238 237 237 237 236 237 237 236 237 237 236 236 237 239 242 245 249 253 257 261 266 266 262 258 255 254 254 253 251 250 249 247 246 244
244 242 241 240 239 239 238 237 237 237 237 236 237 237 237 236 237 238 240 243 246 251 255 259 264 264 261 259 257 254 253 253 253 253 250 247 247 246
244 243 241 240 239 238 238 237 236 236 237 237 236 236 236 236 236 236 238 241 244 247 252 256 261 261 259 259 256 255 254 254 256 254 251 249 247 246
242 242 241 240 239 238 238 237 237 236 236 237 236 235 235 235 235 235 236 239 242 244 248 252 257 259 257 258 257 254 255 256 258 256 253 251 248 246
242 241 240 239 238 238 237 237 236 235 235 235 236 236 235 235 235 234 235 236 239 242 245 249 253 255 256 256 257 254 254 256 258 257 255 253 249 249
241 240 240 239 238 237 237 236 236 235 234 234 234 234 234 234 233 233 234 235 236 239 243 246 250 253 254 254 254 253 254 256 257 258 257 255 250 249
240 240 239 239 239 238 237 236 235 234 233 233 233 232 232 232 232 231 232 233 234 236 239 244 246 249 251 251 252 253 254 254 256 257 257 255 252 250
240 240 240 239 238 237 236 236 235 234 233 232 232 231 230 231 231 230 230 231 232 234 236 240 242 245 248 249 250 252 254 253 254 256 257 256 254 253
238 239 240 240 239 237 235 235 234 233 232 231 230 230 230 229 230 230 230 230 230 232 234 238 240 243 245 247 249 252 253 254 255 256 255 254 253 251
234 235 237 238 238 237 234 233 232 231 230 229 228 228 228 228 227 227 227 227 227 229 232 235 238 241 243 245 247 250 252 253 253 252 252 253 252 251
230 232 233 234 236 236 234 231 230 228 226 225 225 226 226 226 224 224 224 225 225 226 229 232 235 238 240 243 245 248 250 251 249 249 249 251 253 253
225 228 231 232 234 234 233 229 226 223 221 222 222 222 222 221 221 221 222 223 223 224 227 229 232 235 237 240 243 245 246 246 245 246 247 250 252 253
223 226 229 231 232 232 230 227 222 219 217 217 218 217 217 217 217 217 218 219 221 223 225 226 229 232 235 238 241 243 243 242 243 245 247 251 253 251
223 226 228 229 229 229 228 225 221 218 215 213 213 212 212 213 214 215 216 216 218 220 221 224 228 230 233 236 239 241 241 242 243 245 248 250 251 248
222 225 228 230 228 226 225 223 219 216 213 209 207 207 208 210 211 213 213 214 216 217 220 223 226 228 231 234 237 239 240 242 244 245 247 247 247 247
222 226 229 229 225 224 222 219 215 211 208 205 203 203 205 205 208 210 210 212 213 214 217 220 224 226 229 232 236 238 240 242 243 244 244 244 245 245
223 225 226 225 223 221 218 213 207 203 201 199 198 199 201 202 204 206 207 210 211 213 216 219 222 226 229 231 234 237 239 241 242 242 242 242 243 243
219 220 221 219 219 216 213 207 200 197 194 193 193 194 197 200 201 202 205 207 210 213 215 218 221 224 227 230 232 234 236 238 239 240 241 241 242 244
213 212 214 214 213 210 205 199 196 193 190 188 189 192 195 196 198 200 202 205 208 210 213 216 219 222 224 228 230 231 233 236 238 239 239 240 243 247
202 203 203 202 204 201 195 192 190 185 182 183 186 189 192 194 196 198 200 203 206 209 211 214 218 221 223 225 228 230 233 234 236 237 239 244 247 251
189 188 187 187 187 186 185 183 180 178 178 181 183 187 191 193 194 196 198 202 205 208 211 214 217 218 221 225 228 230 232 234 236 239 243 247 251 255
Height
5748 5752 5756 5760 5765 5769 5773 5777 5782 5786 5790 5794 5798 5801 5804 5808 5810 5812 5815 5817 5818 5819 5820 5820 5820 5820 5821 5821 5822 5823 5824 5825 5827 5830 5832 5834 5837 5840
5733 5738 5743 5748 5752 5757 5762 5766 5771 5775 5780 5784 5788 5792 5796 5800 5803 5805 5808 5810 5812 5813 5814 5814 5815 5815 5815 5815 5816 5817 5818 5819 5821 5823 5825 5827 5829 5832
5716 5722 5727 5733 5738 5743 5749 5754 5759 5764 5769 5774 5778 5782 5787 5791 5795 5798 5801 5803 5806 5807 5808 5809 5809 5809 5809 5810 5810 5811 5812 5813 5815 5816 5818 5820 5822 5825
5698 5703 5710 5716 5722 5728 5733 5740 5746 5752 5757 5763 5767 5772 5777 5782 5786 5790 5793 5796 5798 5800 5802 5802 5803 5803 5803 5804 5804 5805 5806 5807 5809 5810 5812 5813 5815 5817
5678 5684 5691 5698 5705 5711 5717 5724 5731 5738 5744 5750 5756 5761 5766 5772 5777 5781 5785 5789 5791 5793 5795 5796 5797 5797 5798 5798 5799 5800 5801 5802 5803 5804 5805 5807 5808 5810
5659 5665 5672 5678 5686 5693 5700 5708 5715 5723 5730 5737 5744 5750 5755 5761 5767 5772 5777 5780 5783 5786 5788 5790 5791 5791 5792 5793 5793 5794 5795 5796 5797 5798 5799 5800 5801 5803
5640 5646 5653 5659 5667 5675 5683 5691 5699 5707 5716 5724 5731 5738 5744 5750 5757 5762 5767 5771 5775 5778 5781 5783 5784 5785 5786 5786 5787 5788 5789 5790 5791 5792 5793 5794 5795 5797
5623 5628 5635 5641 5648 5656 5665 5673 5682 5691 5701 5709 5718 5725 5733 5739 5746 5752 5757 5762 5767 5771 5773 5776 5778 5779 5780 5780 5781 5782 5783 5784 5785 5786 5787 5788 5789 5791
5607 5612 5618 5624 5631 5638 5647 5656 5665 5675 5685 5695 5704 5713 5721 5728 5735 5742 5747 5752 5757 5761 5765 5768 5771 5773 5774 5775 5776 5777 5778 5779 5780 5781 5782 5783 5784 5785
5592 5597 5603 5608 5615 5622 5630 5638 5648 5659 5671 5681 5691 5701 5708 5715 5723 5730 5736 5742 5748 5753 5757 5761 5764 5766 5768 5769 5770 5771 5772 5773 5774 5775 5776 5777 5779 5780
5579 5584 5589 5595 5600 5607 5614 5624 5633 5643 5653 5665 5676 5685 5694 5703 5711 5719 5726 5733 5739 5745 5749 5754 5757 5759 5761 5763 5764 5765 5767 5768 5769 5770 5771 5773 5774 5775
5567 5572 5578 5583 5587 5593 5600 5608 5617 5627 5638 5649 5660 5671 5682 5691 5700 5709 5717 5724 5730 5736 5741 5746 5749 5752 5754 5756 5758 5759 5761 5762 5763 5765 5766 5767 5769 5770
5556 5562 5567 5572 5577 5582 5588 5595 5603 5613 5623 5634 5646 5658 5669 5680 5690 5699 5707 5715 5722 5729 5734 5738 5741 5745 5748 5750 5752 5753 5755 5756 5758 5759 5761 5762 5764 5765
5547 5553 5558 5563 5567 5572 5577 5583 5590 5599 5610 5621 5633 5646 5658 5669 5680 5689 5698 5706 5713 5720 5725 5730 5734 5738 5741 5744 5746 5748 5750 5751 5753 5754 5756 5757 5758 5760
5540 5545 5550 5555 5559 5564 5568 5573 5579 5588 5599 5610 5622 5635 5647 5659 5669 5679 5688 5696 5704 5710 5717 5722 5727 5731 5735 5738 5740 5742 5744 5746 5747 5749 5751 5752 5753 5755
5534 5539 5543 5547 5552 5556 5560 5565 5571 5579 5588 5600 5612 5623 5636 5648 5659 5669 5679 5688 5696 5703 5709 5715 5720 5725 5728 5731 5734 5736 5738 5740 5742 5744 5745 5747 5748 5749
5528 5532 5536 5541 5545 5549 5553 5558 5564 5571 5580 5590 5602 5614 5627 5639 5650 5661 5671 5680 5689 5696 5702 5708 5713 5718 5722 5725 5728 5730 5732 5734 5736 5738 5740 5741 5743 5744
5522 5526 5530 5534 5538 5542 5547 5551 5557 5565 5573 5583 5595 5607 5619 5631 5643 5654 5664 5673 5682 5689 5696 5702 5707 5711 5715 5719 5722 5724 5727 5729 5731 5732 5734 5736 5738 5739
5517 5521 5524 5528 5532 5537 5541 5545 5551 5559 5567 5577 5589 5601 5613 5625 5636 5647 5658 5667 5675 5682 5689 5695 5701 5705 5709 5713 5716 5718 5721 5723 5725 5727 5729 5731 5733 5735
5513 5516 5519 5523 5527 5531 5535 5540 5547 5554 5563 5573 5584 5596 5608 5619 5631 5642 5652 5661 5670 5677 5683 5689 5695 5699 5704 5707 5710 5713 5715 5718 5720 5722 5724 5726 5728 5729
5510 5512 5516 5519 5522 5527 5531 5537 5543 5551 5560 5570 5582 5593 5604 5615 5626 5637 5647 5656 5664 5672 5678 5684 5689 5693 5697 5701 5704 5707 5710 5713 5715 5717 5719 5721 5723 5724
5508 5510 5513 5516 5519 5523 5528 5534 5541 5549 5558 5569 5580 5591 5602 5613 5623 5633 5642 5651 5660 5667 5673 5679 5683 5688 5692 5696 5699 5702 5705 5707 5710 5712 5714 5716 5717 5719
5507 5509 5511 5514 5517 5522 5527 5533 5541 5549 5559 5569 5580 5590 5601 5611 5621 5630 5639 5648 5655 5662 5668 5673 5678 5683 5687 5691 5694 5697 5700 5702 5705 5707 5709 5710 5712 5713